Showing default

FORMOSAT7-1/COSMIC2-1, 44349

Orbit data source: Space-Track

FORMOSAT7-1/COSMIC2-1, 44349 is a payload satellite owned by NSPO (TW) in LEO that was launched on Tue, 25 Jun 2019 UTC via an FALCON HEAVY launch vehicle from the Air Force Eastern Test Range (AFETR). Payload-class satellites include a variety of spacecraft equipped with specific instruments for various scientific and technological missions. These include communications satellites like Starlink; space stations such as the ISS; scientific satellites like the Hubble; Earth observation satellites from companies like Planet Labs, Umbra, and HawkEye 360; GPS; miniature CubeSats for education and research; and military/defense satellites.

Not visible in the next 10 days
Identifier
44349, 2019-036L
Orbit
LEO
Last TLE update
13 hours ago
Origin
Manufacturer
SSTL (Astrium)
Mission
Operational Civil Weather
Bus & Motor
SSTL-100, Unknown motor
Mass
278 kg wet, 278 kg dry
Launch date (UTC)
2019-06-25 (6 years ago)
Launch vehicle
FALCON HEAVY
Launch site
Air Force Eastern Test Range (AFETR)
Object type
Payload
Rocket body
Debris
Shape & HBR
Box + 1 Pan, 3 m
Radar Cross Section
2.189 m², Large (>1 m²)

Expand to show TLE details & history

TLE from 13 hours ago
0 FORMOSAT7-1/COSMIC2-1
1 44349U 19036L   25181.87714823  .00002846  00000-0  16944-3 0  9997
2 44349  23.9977 245.3637 0001999 148.0543 212.0081 15.05720691331924
Epoch: 2025-06-30T21:03Z
TLE epoch observation values (Epoch: 2025-06-30T21:03:05.607Z)
Latitude
-0.00001°
Longitude
10.40967°
Altitude
548.349 km
Speed
7.59 km/s
True Right ascension
16h 21m 27s
True Declination
0° 00' 00"
Sunlit
Object was in full shadow at epoch
Visualization orbit readout
Latitude
2.37445°
Longitude
-178.74778°
Altitude
545.584 km
Speed
7.593 km/s
Apparent Right ascension
06h 14m 33s
Apparent Declination
-25° 18' 28"
Sunlit
Object is in daylight
Visualization observer readout
Local Sidereal Time
22:11:06
Azimuth
92.236° ESE
Elevation
-39.049°
Doppler factor
1
Orbital elements
Apogee altitude
555.467 km
Perigee altitude
552.696 km
Semi-major axis
6,932.218 km
Eccentricity
0.0002
Inclination
23.9977°
RAAN
245.3637°
Arg. of periapsis
148.0543°
True anomaly
Unknown
Mean anomaly
212.0081°
Eccentric anomaly
Unknown
Mean motion
3.76041 °/min
Orbital period
95.73 mins
BSTAR
0.00016944
Loading maneuver chart data...
Loading SW <> Apogee altitude chart data...
Loading historical data...
Loading historical data...
Loading historical data...
Loading historical data...
Loading historical data...
Loading historical data...
Loading historical data...

FORMOSAT7-1/COSMIC2-1 Visibility

Observer location: undefined°, undefined°

FORMOSAT7-1/COSMIC2-1 is likely not visible in the next few days
Span
Click to sort rows by Start time (UTC) header in descending order
Start Az.
Max El. time (UTC)
Max El. Az.
Max El.
End time (UTC)
End Az.
|